Hobart, OK

1:08 AM CDT on September 20, 2017 (GMT -0500)
Hobart Municipal

Weather History for KHBR - October, 2012

Change the Weather History Date:

Monday, October 22, 2012

  Actual Average Record
Temperature  
Mean Temperature 74 °F -  
Max Temperature 82 °F 69 °F 88 °F (2003)
Min Temperature 64 °F 47 °F 33 °F (2006)
Cooling Degree Days 9    
Growing Degree Days 24 (Base 50)    
Moisture  
Dew Point 62 °F    
Average Humidity 69    
Maximum Humidity 90    
Minimum Humidity 38    
Precipitation  
Precipitation 0.01 in - - ()
Sea Level Pressure  
Sea Level Pressure 29.80 in    
Wind  
Wind Speed 19 mph (South)    
Max Wind Speed 32 mph    
Max Gust Speed 40 mph    
Visibility 10 miles    
Events Rain    
Averages and records for this station are not official NWS values.
T = Trace of Precipitation, MM = Missing Value Source: NWS Daily Summary

Daily Weather History Graph

Daily Weather History Graph

Search for Another Location

Airport or City:

Trip Planner

Search our weather history database for the weather conditions in past years. The results will help you decide how hot, cold, wet, or windy it might be!

Date:

Astronomy

Oct. 22, 2012 Rise Set
Actual Time 7:48 AM CDT 6:52 PM CDT
Civil Twilight 7:22 AM CDT 7:17 PM CDT
Nautical Twilight 6:53 AM CDT 7:47 PM CDT
Astronomical Twilight 6:23 AM CDT 8:16 PM CDT
Moon 2:46 PM CDT (10/22) 12:53 AM CDT (10/22)
Length of Visible Light 11h 54m
Length of Day
11h 03m
First Quarter, 56% of the Moon is Illuminated
Oct 22
First Quarter
Oct 29
Full
Nov 6
Last Quarter
Nov 13
New
Nov 20
First Quarter

Hourly Weather History & Observations

Time (CDT) Temp. Heat Index Dew Point Humidity Pressure Visibility Wind Dir Wind Speed Gust Speed Precip Events Conditions
12:53 AM 73.0 °F - 63.0 °F 71% 29.73 in 10.0 mi South 16.1 mph - N/A   Clear
1:53 AM 73.9 °F - 63.0 °F 68% 29.73 in 10.0 mi South 17.3 mph - N/A   Clear
2:53 AM 73.0 °F - 63.0 °F 71% 29.74 in 10.0 mi South 16.1 mph - N/A   Clear
3:53 AM 70.0 °F - 63.0 °F 78% 29.75 in 9.0 mi South 12.7 mph - N/A   Clear
4:53 AM 73.0 °F - 64.0 °F 73% 29.75 in 9.0 mi South 19.6 mph - N/A   Clear
5:53 AM 73.0 °F - 64.0 °F 73% 29.76 in 10.0 mi South 23.0 mph 28.8 mph N/A   Clear
6:53 AM 73.0 °F - 64.0 °F 73% 29.78 in 10.0 mi SSW 19.6 mph - N/A   Clear
7:53 AM 72.0 °F - 64.0 °F 76% 29.80 in 9.0 mi South 17.3 mph - N/A   Clear
8:53 AM 73.0 °F - 63.0 °F 71% 29.82 in 9.0 mi SW 18.4 mph - N/A   Scattered Clouds
9:53 AM 70.0 °F - 63.0 °F 78% 29.87 in 9.0 mi SSW 20.7 mph - 0.00 in   Mostly Cloudy
10:53 AM 71.1 °F - 57.9 °F 63% 29.89 in 10.0 mi SW 27.6 mph 35.7 mph 0.00 in Rain Light Rain
11:27 AM 69.8 °F - 59.0 °F 68% 29.88 in 9.0 mi SSE 19.6 mph - 0.01 in Rain Light Rain
11:53 AM 71.1 °F - 61.0 °F 70% 29.88 in 10.0 mi South 19.6 mph - 0.01 in   Clear
12:53 PM 72.0 °F - 59.0 °F 64% 29.86 in 10.0 mi South 16.1 mph - N/A   Clear
1:53 PM 77.0 °F - 55.9 °F 48% 29.81 in 10.0 mi South 20.7 mph - N/A   Clear
2:53 PM 82.9 °F 82.0 °F 55.0 °F 38% 29.78 in 10.0 mi SSW 25.3 mph 36.8 mph N/A   Clear
3:53 PM 82.0 °F 82.1 °F 59.0 °F 45% 29.77 in 10.0 mi South 29.9 mph 35.7 mph N/A   Partly Cloudy
4:53 PM 80.1 °F 81.1 °F 61.0 °F 52% 29.77 in 10.0 mi SSW 32.2 mph 40.3 mph N/A   Clear
5:53 PM 75.9 °F - 62.1 °F 62% 29.79 in 10.0 mi South 27.6 mph - N/A   Clear
6:53 PM 73.0 °F - 63.0 °F 71% 29.80 in 10.0 mi South 23.0 mph - N/A   Clear
7:53 PM 71.6 °F - 64.4 °F 78% 29.85 in 10.0 mi South 23.0 mph - N/A   Clear
8:53 PM 69.1 °F - 63.0 °F 81% 29.82 in 10.0 mi South 21.9 mph - N/A   Clear
9:53 PM 66.9 °F - 63.0 °F 87% 29.83 in 10.0 mi South 20.7 mph - N/A   Clear
10:53 PM 66.9 °F - 63.0 °F 87% 29.83 in 10.0 mi South 19.6 mph - N/A   Clear
11:53 PM 64.9 °F - 62.1 °F 90% 29.83 in 10.0 mi South 15.0 mph - N/A   Clear